FW7632 Weather Reports


Display with metric or nautical units.
time (UTC)temp
F
wind
direction
speed
MPH
gust
MPH
rain 1hr
in
rain 24hr
in
rain mn
in
humidity
%
barometer
mb
20260505070055 63 229 3.0 10.0 0.00 0.00 0.00 50 1004.5
20260505064549 64 229 5.0 15.0 0.00 0.00 0.00 50 1004.5
20260505063108 64 223 4.0 12.0 0.00 0.00 0.00 49 1004.5
20260505061546 64 258 6.0 16.0 0.00 0.00 0.00 49 1004.4
20260505060045 64 214 5.0 20.0 0.00 0.00 0.00 49 1004.6
20260505054544 63 234 6.0 11.0 0.00 0.00 0.00 49 1004.6
20260505053049 63 215 5.0 11.0 0.00 0.00 0.00 49 1004.7
20260505051541 63 213 6.0 10.0 0.00 0.00 0.00 49 1004.7
20260505041546 64 183 3.0 10.0 0.00 0.00 0.00 48 1004.6
20260505040038 64 235 4.0 10.0 0.00 0.00 0.00 47 1004.6
20260505034531 64 237 3.0 13.0 0.00 0.00 0.00 47 1004.6
20260505033028 64 229 5.0 14.0 0.00 0.00 0.00 46 1004.6
20260505031538 65 227 5.0 12.0 0.00 0.00 0.00 46 1004.7
20260505030028 65 232 4.0 12.0 0.00 0.00 0.00 45 1004.7
20260505024527 65 216 5.0 12.0 0.00 0.00 0.00 45 1004.8
20260505023027 66 233 4.0 11.0 0.00 0.00 0.00 44 1004.8
20260505021559 66 223 5.0 13.0 0.00 0.00 0.00 43 1004.9
20260505020026 66 229 4.0 10.0 0.00 0.00 0.00 43 1004.9
20260505014532 66 205 3.0 10.0 0.00 0.00 0.00 42 1004.8
20260505013024 66 211 3.0 9.0 0.00 0.00 0.00 41 1004.7
20260505011524 67 219 3.0 14.0 0.00 0.00 0.00 41 1004.7
20260505010026 67 198 5.0 12.0 0.00 0.00 0.00 41 1004.4
20260505004527 67 218 3.0 9.0 0.00 0.00 0.00 40 1004.4
20260505003021 68 229 3.0 9.0 0.00 0.00 0.00 39 1004.3
20260505001521 68 238 4.0 9.0 0.00 0.00 0.00 38 1004.2
20260505000021 69 211 4.0 10.0 0.00 0.00 0.00 37 1004.0
20260504234522 70 232 3.0 7.0 0.00 0.00 0.00 36 1004.0
20260504233023 71 240 4.0 10.0 0.00 0.00 0.00 35 1003.8
20260504231519 72 225 4.0 12.0 0.00 0.00 0.00 33 1003.9
20260504230019 73 213 6.0 12.0 0.00 0.00 0.00 32 1003.7
20260504224520 74 217 5.0 8.0 0.00 0.00 0.00 32 1003.7
20260504223027 74 234 4.0 11.0 0.00 0.00 0.00 31 1003.8
20260504221517 75 209 6.0 15.0 0.00 0.00 0.00 30 1003.7
20260504220018 77 223 3.0 10.0 0.00 0.00 0.00 29 1003.6
20260504214516 77 203 3.0 11.0 0.00 0.00 0.00 29 1003.6
20260504213022 77 209 4.0 10.0 0.00 0.00 0.00 29 1003.8
20260504211512 76 202 5.0 14.0 0.00 0.00 0.00 29 1003.8
20260504210012 77 206 4.0 9.0 0.00 0.00 0.00 30 1004.1
20260504204528 76 223 3.0 15.0 0.00 0.00 0.00 29 1004.2
20260504203010 76 221 3.0 15.0 0.00 0.00 0.00 29 1004.5
20260504201506 77 255 3.0 11.0 0.00 0.00 0.00 28 1004.6
20260504200004 76 226 3.0 13.0 0.00 0.00 0.00 30 1004.9
20260504194604 75 209 7.0 14.0 0.00 0.00 0.00 30 1005.0
20260504193059 73 232 5.0 14.0 0.00 0.00 0.00 32 1005.1
20260504191601 74 241 4.0 13.0 0.00 0.00 0.00 31 1005.4
20260504190055 75 238 5.0 14.0 0.00 0.00 0.00 30 1005.5
20260504184556 75 232 7.0 14.0 0.00 0.00 0.00 31 1005.7
20260504183049 72 223 5.0 19.0 0.00 0.00 0.00 32 1005.8
20260504181548 73 220 8.0 16.0 0.00 0.00 0.00 32 1005.9
20260504180045 72 208 6.0 19.0 0.00 0.00 0.00 32 1006.0
20260504174545 73 222 5.0 16.0 0.00 0.00 0.00 34 1006.2
20260504173042 73 196 5.0 14.0 0.00 0.00 0.00 32 1006.4
20260504171545 73 231 7.0 16.0 0.00 0.00 0.00 32 1006.4
20260504081509 48 242 3.0 7.0 0.00 0.00 0.00 52 1009.9